Regional Weather Roundup
Issued by NWS

Home | Current Version | Previous Version | Graphics & Text | Print | Product List | Glossary On
Versions: 1 2 3 4 5 6 7 8 9 10 11 12 13 14 15 16 17 18 19 20 21 22 23 24 25 26 27 28 29 30 31 32 33 34 35 36 37 38 39 40 41 42 43 44 45 46 47 48 49 50
000
ASUS43 KDMX 021807
RWRIA

WEATHER ROUNDUP FOR IOWA
NATIONAL WEATHER SERVICE DES MOINES IA
1200 PM CST MON MAR 02 2015

NOTE: "FAIR" INDICATES FEW OR NO CLOUDS BELOW 12,000 FEET WITH NO
SIGNIFICANT WEATHER AND/OR OBSTRUCTIONS TO VISIBILITY.

* - THESE STATIONS ARE NOT NWS STATIONS...THUS NOT UNDER NWS
QUALITY CONTROL.  THEY ALSO DO NOT REPORT WEATHER SUCH
AS PRECIPITATION OR FOG.

IAZ001>003-012>014-020>022-031>034-043>046-021900-
   NORTHWEST IOWA

CITY           SKY/WX    TMP DP  RH WIND       PRES   REMARKS
CARROLL *      CLOUDY    28  18  64 SE13      30.42F WCI  18
CHEROKEE *     CLOUDY    26  17  67 SE9       30.40F WCI  17
DENISON *      CLOUDY    30  19  64 SE10      30.37F WCI  21
LE MARS *      CLOUDY    28  18  64 SE13      30.38F WCI  18
ORANGE CITY *  CLOUDY    27  16  63 SE3       30.36F
SHELDON *      PTSUNNY   25  14  63 S16       30.36F WCI  12
SIOUX CITY     CLOUDY    30  16  56 SE16      30.37F WCI  19
6HR MIN TEMP:  10; 6HR MAX TEMP:  31;

SPENCER        PTSUNNY   25  15  66 S12       30.40F WCI  14
6HR MIN TEMP:  -2; 6HR MAX TEMP:  25;

STORM LAKE *   PTSUNNY   25  18  74 SE14      30.39F WCI  13
$$

IAZ055>058-069>071-079>083-090>094-021900-
   SOUTHWEST IOWA

CITY           SKY/WX    TMP DP  RH WIND       PRES   REMARKS
ATLANTIC *     CLOUDY    30  19  64 SE8       30.40F WCI  23
AUDUBON *      PTSUNNY   30  18  59 SE9       30.41F WCI  22
CLARINDA *     MOSUNNY   36  19  51 SE12      30.42F WCI  27
COUNCIL BLFS * CLOUDY    32  21  64 SE10G18   30.37F WCI  24
CRESTON *      CLOUDY    30  18  59 SE9       30.42F WCI  22
HARLAN  *      CLOUDY    30  23  74 SE13      30.42F WCI  20
LAMONI         CLOUDY    31  19  61 SE7       30.45F WCI  24
6HR MIN TEMP:  19; 6HR MAX TEMP:  31;

RED OAK *      CLOUDY    34  19  55 SE10      30.41F WCI  26
SHENANDOAH *   PTSUNNY   37  19  48 SE14      30.41F WCI  29
$$

IAZ047>049-059>061-072>074-084-021900-
   CENTRAL IOWA

CITY           SKY/WX    TMP DP  RH WIND       PRES   REMARKS
AMES           CLOUDY    26  14  60 E6        30.47F WCI  19
6HR MIN TEMP:   7; 6HR MAX TEMP:  26;

ANKENY *       CLOUDY    28  14  54 S6        30.48F WCI  22
CHARITON *     CLOUDY    30  16  55 SE5       30.46F WCI  25
DES MOINES     CLOUDY    29  13  51 S3        30.47F
6HR MIN TEMP:  17; 6HR MAX TEMP:  29;

GRINNELL*      MOSUNNY   25  14  62 E3        30.48F
KNOXVILLE *    CLOUDY    28  14  54 E5        30.46F WCI  23
MARSHALLTOWN   MOSUNNY   23  15  71 CALM      30.48F
6HR MIN TEMP:   5; 6HR MAX TEMP:  23;

PELLA *        SUNNY     30  18  60 CALM      30.49F
PERRY *          N/A     28  18  64 SE7       30.45F WCI  21
$$

IAZ004>006-015-016-023>025-035-036-021900-
   NORTH CENTRAL IOWA

CITY           SKY/WX    TMP DP  RH WIND       PRES   REMARKS
ALGONA *       MOSUNNY   21  14  73 S10       30.44F WCI  10
CLARION *      SUNNY     23  18  80 S9        30.45F WCI  13
ESTHERVILLE    MOSUNNY   21  12  68 S13       30.41F WCI   9
6HR MIN TEMP:  -1; 6HR MAX TEMP:  22;

FORT DODGE *   CLOUDY    25  14  63 S7        30.45F WCI  17
MASON CITY     SUNNY     18  12  77 S8        30.47F WCI   8
6HR MIN TEMP:  -3; 6HR MAX TEMP:  19;

FOREST CITY *  SUNNY     21  12  68 S7        30.45F WCI  13
IOWA FALLS *     N/A     23  14  68 SE3       30.48F
$$

IAZ007>011-017>019-026>030-037>042-050>054-066-021900-
   NORTHEAST IOWA

CITY           SKY/WX    TMP DP  RH WIND       PRES   REMARKS
CEDAR RAPIDS   SUNNY     21  14  74 NW3       30.49F
6HR MIN TEMP:   5; 6HR MAX TEMP:  21;

CHARLES CITY * SUNNY     19  10  68 S6        30.48F WCI  11
CLINTON *      SUNNY     21  16  79 CALM      30.54F
DECORAH *      SUNNY     19  10  68 VRB5      30.46F WCI  13
DUBUQUE        MOSUNNY   22  13  68 S3        30.48F
6HR MIN TEMP:  -2; 6HR MAX TEMP:  23;

MONTICELLO *   SUNNY     21  12  68 CALM      30.50F
OELWEIN *      SUNNY     18  12  79 CALM      30.49F
WATERLOO       SUNNY     20  12  71 NE6       30.49F WCI  12
6HR MIN TEMP:  -7; 6HR MAX TEMP:  21; 6HR PCP: TRACE;

$$

IAZ064-065-067-068-078-021900-
   EAST CENTRAL IOWA

CITY           SKY/WX    TMP DP  RH WIND       PRES   REMARKS
DAVENPORT      SUNNY     22  13  68 CALM      30.52F
6HR MIN TEMP:   2; 6HR MAX TEMP:  23;

IOWA CITY      SUNNY     25  15  66 SE8       30.52F WCI  16
6HR MIN TEMP:   5; 6HR MAX TEMP:  28;

MT. PLEASANT * MOSUNNY   24  13  62 NE6       30.51F WCI  17
MUSCATINE *    SUNNY     27  14  59 CALM      30.53F
QUAD CITIES    SUNNY     30  13  49 CALM      30.51F
6HR MIN TEMP:   2; 6HR MAX TEMP:  30;

$$

IAZ062-063-075>077-085>089-095>099-021900-
   SOUTHEAST IOWA

CITY           SKY/WX    TMP DP  RH WIND       PRES   REMARKS
BURLINGTON     MOSUNNY   27  15  61 SE6       30.50F WCI  20
6HR MIN TEMP:  14; 6HR MAX TEMP:  27;

FAIRFIELD *    SUNNY     27  12  54 E5        30.49F WCI  21
FORT MADISON * SUNNY     28  16  59 E5        30.51F WCI  23
KEOKUK *       SUNNY     28  16  59 E5        30.50F WCI  23
OSKALOOSA *      N/A     30  15  53 SE3       30.48F
CENTERVILLE *  SUNNY     32  18  55 SE6       30.48F WCI  26
OTTUMWA        MOSUNNY   27  14  58 E6        30.48F WCI  20
6HR MIN TEMP:  11; 6HR MAX TEMP:  28;

WASHINGTON *   SUNNY     27  18  69 NE5       30.50F WCI  21
$$

ABBREVIATIONS USED IN REMARKS
   TC - TEMPERATURES IN CELSIUS
  WCI - WIND CHILL INDEX
   HX - HEAT INDEX
  VSB - VISIBILITY
$$




USA.gov is the U.S. government's official web portal to all federal, state and local government web resources and services.